Wind_Speed
27 30 32 30 26 22 18 15 13 12 9 6 2 3 5 1 4 8 10 12 13 16 20 23 26 26 29 23 22 21 8 3 6 7 7 6 7 1 10 12 12 10 12 11 13
27 29 32 33 31 26 22 18 16 14 12 10 6 2 3 3 4 6 10 16 15 14 20 27 32 29 30 25 8 6 4 5 1 7 9 11 1 6 5 8 9 8 8 9 10
29 28 31 33 33 31 26 23 20 17 14 13 9 7 1 3 4 5 8 16 17 15 17 28 44 35 24 8 4 4 10 7 3 10 6 3 7 12 14 8 6 6 6 7 8
32 30 29 32 35 35 32 27 24 21 18 15 13 11 6 0 2 4 10 17 19 16 14 18 34 28 20 5 4 4 8 11 18 16 18 16 14 5 7 5 8 5 5 5 7
28 33 32 31 33 37 36 33 29 26 22 18 17 14 12 6 1 3 8 13 19 19 17 18 24 27 14 4 8 4 9 11 6 8 8 6 5 1 6 4 3 2 3 3 4
21 29 35 34 33 33 37 37 33 30 27 22 19 18 15 10 6 2 8 10 19 20 17 18 21 24 13 10 7 13 4 13 11 6 7 3 0 3 4 4 3 1 1 2 3
23 22 31 37 35 35 33 38 37 33 31 27 23 21 19 14 10 4 8 11 17 21 17 17 19 15 21 12 5 10 12 13 4 3 7 1 1 1 2 3 4 3 2 1 2
27 23 24 35 38 37 35 34 40 37 34 31 27 23 23 19 14 11 5 11 12 21 22 19 13 25 20 17 12 10 9 7 3 7 1 4 5 4 3 4 4 4 4 3 3
28 28 23 27 37 40 37 34 37 40 38 35 31 27 25 24 19 16 10 13 15 17 22 18 17 13 25 15 12 17 9 14 9 19 11 5 3 6 6 4 4 5 3 3 5
29 29 26 23 30 40 40 35 34 42 42 38 35 31 30 30 24 18 16 12 16 18 19 18 17 17 16 22 19 10 16 19 15 15 15 10 8 11 9 7 2 3 3 2 4
29 30 29 25 25 36 40 38 35 40 45 42 41 38 33 33 29 23 19 17 18 21 21 21 21 16 18 17 15 13 12 15 9 14 25 17 16 11 14 11 9 4 2 1 3
29 30 30 28 25 28 39 39 40 39 40 44 41 40 36 37 32 29 25 21 18 19 24 25 21 17 15 17 19 13 16 13 13 18 14 20 20 13 9 16 19 10 6 3 2
31 31 30 30 26 25 34 39 39 39 39 46 44 42 39 37 35 33 28 22 20 21 22 19 19 21 19 20 21 22 20 16 13 17 22 17 33 21 13 14 21 18 13 7 5
33 32 30 30 28 26 29 37 36 38 37 39 44 40 43 40 39 37 32 27 26 23 22 22 20 23 23 21 20 19 21 20 19 20 16 20 13 25 14 25 24 33 17 11 7
34 32 32 28 28 26 27 27 34 35 27 23 34 36 39 40 37 40 36 34 30 26 27 21 23 24 25 24 24 22 15 19 20 22 19 19 22 30 21 25 25 16 24 14 10
35 33 32 26 29 27 25 29 32 30 23 5 24 35 39 41 43 42 42 39 34 32 29 23 21 22 22 20 22 18 17 19 21 20 22 22 20 28 31 16 18 25 12 12 16
35 33 32 26 31 24 24 26 32 35 25 18 20 24 33 36 41 43 45 45 40 33 30 26 18 23 25 22 19 19 17 17 17 17 17 16 22 21 24 18 11 21 26 25 25
35 34 31 29 28 27 27 30 36 31 38 18 11 16 27 32 34 41 44 44 41 35 28 29 25 25 24 22 20 25 19 16 11 7 11 14 18 12 20 17 25 9 16 28 21
35 35 31 31 29 27 30 33 31 24 29 16 11 20 24 27 29 33 43 43 40 38 25 27 22 25 22 23 27 24 25 18 16 14 13 15 15 15 20 18 24 35 36 33 26
35 35 30 33 30 29 32 30 24 24 26 24 24 22 24 27 29 29 37 40 41 38 34 21 18 23 26 25 27 21 11 20 20 19 17 14 18 20 22 24 28 22 24 19 23
34 34 34 31 33 32 30 24 19 34 26 18 31 25 23 25 30 30 31 34 39 36 33 23 16 19 23 29 26 22 23 21 15 15 11 11 24 22 24 26 23 21 24 22 19
33 33 36 30 35 30 28 24 23 28 27 20 41 26 31 32 29 32 28 28 31 32 35 32 27 25 30 25 23 22 26 20 20 22 22 19 13 17 22 25 24 29 30 25 20
32 35 36 32 33 30 26 27 31 37 27 18 28 40 31 28 30 33 31 28 26 31 34 34 32 30 26 26 28 30 27 23 19 17 21 19 21 32 30 29 28 32 32 34 36
32 35 34 33 32 30 28 27 33 32 31 23 21 33 24 23 32 32 33 29 31 29 34 31 33 34 28 26 24 27 25 27 27 29 24 25 24 25 21 27 36 40 31 29 32
36 33 39 39 33 32 33 33 25 29 31 36 38 29 29 22 27 29 30 31 29 36 37 42 36 31 31 32 28 29 25 28 28 35 31 24 38 31 40 26 32 44 30 28 37
36 34 43 38 40 40 37 34 30 22 32 27 45 28 30 30 29 35 34 31 36 42 42 42 40 36 28 25 31 28 28 32 27 25 24 31 27 34 33 42 36 45 32 41 42
33 34 42 34 36 35 37 38 35 24 28 33 41 36 34 40 40 44 39 39 44 42 46 49 46 36 29 28 26 29 27 28 29 29 32 29 28 36 44 44 45 49 43 40 39
Wind_Direction
237 232 233 240 244 237 233 223 219 212 226 220 242 52 55 119 148 160 152 155 147 147 151 128 119 121 104 94 50 9 58 28 120 140 346 35 86 190 94 98 97 91 85 84 83
248 240 235 235 240 237 232 230 225 219 214 215 200 217 55 56 146 158 154 159 158 147 154 132 132 128 119 69 74 107 48 72 87 64 276 157 200 23 26 100 98 90 82 88 90
253 250 241 234 235 235 232 228 227 224 220 211 197 211 203 38 102 128 142 159 164 159 151 142 139 137 92 88 9 54 190 192 231 110 276 20 198 208 174 130 115 103 90 98 95
253 251 253 242 236 234 232 228 226 225 226 217 206 205 214 250 65 141 149 162 166 164 150 150 146 140 96 141 166 338 143 210 222 192 161 206 230 303 85 111 116 113 100 101 121
259 251 248 253 244 237 232 229 225 224 224 223 212 207 214 214 145 130 149 163 169 170 160 160 148 109 102 148 130 126 205 138 115 101 221 274 232 29 79 59 82 124 122 117 119
285 255 248 246 250 248 237 229 226 224 222 221 218 212 210 211 218 127 162 160 172 174 169 160 156 115 141 201 144 216 183 107 193 203 242 173 111 61 78 76 41 49 146 151 148
299 280 251 246 244 246 247 233 226 224 224 221 220 215 211 204 214 201 176 166 172 179 178 172 169 165 138 179 205 211 181 163 180 139 37 49 132 316 7 79 71 62 113 122 130
292 293 270 246 243 243 241 244 228 223 222 221 220 217 213 213 212 207 189 181 172 183 186 186 181 155 144 203 208 185 174 160 226 302 180 186 242 233 239 159 111 89 66 68 71
284 288 291 261 242 241 240 237 235 225 221 219 219 216 214 216 210 203 202 192 180 183 194 192 186 186 155 195 184 169 183 218 231 275 297 286 192 234 216 206 128 106 78 49 33
280 281 285 287 253 239 240 237 231 226 222 219 217 214 211 211 209 208 206 207 194 184 184 200 198 195 148 198 184 182 218 231 254 295 308 300 317 290 234 246 344 109 86 41 9
279 277 279 282 276 245 238 238 232 227 221 221 215 214 213 211 208 208 204 206 204 188 187 190 200 201 186 191 173 206 211 231 215 271 296 307 284 301 302 259 276 295 163 115 344
274 275 274 277 281 261 240 237 236 232 218 219 217 217 214 213 206 205 207 206 210 201 187 195 193 179 193 201 191 192 230 227 225 249 269 270 298 271 302 292 283 268 252 267 344
270 272 272 272 274 273 245 239 237 234 223 217 214 214 215 214 209 205 208 206 206 206 200 201 190 175 194 207 207 204 213 219 219 227 244 256 272 259 215 286 303 296 275 256 275
267 267 269 268 268 269 251 237 240 236 234 221 212 211 214 212 210 206 203 206 205 208 204 203 193 202 204 208 219 211 231 195 215 243 253 284 271 296 232 295 284 303 266 264 273
268 264 266 266 263 262 258 246 244 235 237 241 225 218 213 213 214 209 204 206 204 206 206 202 196 222 213 216 218 223 220 212 219 232 246 248 269 275 237 276 307 284 293 256 260
261 264 262 262 260 255 249 240 234 230 212 230 232 217 214 210 209 209 207 205 204 205 205 196 220 212 222 214 214 181 213 220 225 239 242 248 239 240 280 257 276 276 236 276 273
257 258 259 260 252 252 244 234 234 225 190 176 254 234 218 214 212 212 207 207 208 204 207 201 188 212 206 208 201 199 211 213 232 240 247 239 247 254 282 266 285 274 271 305 285
251 253 253 255 247 244 239 235 231 219 198 138 257 245 223 216 213 218 213 209 207 205 207 205 201 213 208 202 204 213 202 209 216 242 264 248 244 258 256 278 282 302 296 284 280
244 249 248 249 243 238 237 237 236 219 185 174 222 234 224 215 213 213 220 212 210 205 188 210 202 227 203 200 214 223 202 209 226 261 250 241 277 258 269 263 261 260 258 261 268
241 242 242 244 240 236 236 238 230 198 158 230 215 217 219 212 204 224 226 212 211 211 175 215 201 220 206 215 208 213 240 220 210 238 238 239 259 268 262 271 286 275 256 254 271
240 238 237 241 238 236 237 238 227 186 200 222 200 194 206 216 215 215 227 218 213 206 176 178 215 228 219 227 209 219 216 221 216 223 231 251 251 241 249 258 259 271 278 249 240
239 235 235 233 239 236 231 229 212 199 192 230 204 192 192 200 220 215 228 231 221 205 194 191 214 212 232 225 217 217 230 220 211 221 225 225 245 258 263 270 280 295 296 291 258
241 232 233 230 238 237 228 222 210 194 209 229 232 191 183 194 208 215 217 227 217 210 206 203 205 207 203 224 227 219 222 234 243 235 226 240 249 255 261 273 275 281 287 293 288
241 230 233 221 230 230 221 217 221 212 208 221 209 211 207 214 201 203 221 211 214 218 205 213 220 213 213 214 228 238 232 224 230 245 248 241 249 276 273 271 275 274 269 286 286
239 235 225 212 219 228 225 212 211 230 220 208 212 192 220 214 206 204 206 217 214 216 221 211 216 213 226 208 221 238 241 240 246 231 231 243 245 239 266 268 266 277 282 287 294
237 244 241 229 221 219 215 217 199 217 222 234 215 203 203 202 209 208 202 211 213 218 217 214 216 216 219 224 229 232 228 250 254 254 241 241 252 278 277 272 262 268 275 287 292
234 231 219 223 224 224 218 218 211 197 210 225 212 210 190 208 221 202 207 207 209 221 219 226 231 230 231 228 230 230 235 234 247 246 239 232 242 249 267 270 271 280 283 286 288
Height
5890 5892 5894 5895 5897 5899 5902 5904 5904 5905 5906 5906 5907 5906 5906 5905 5906 5905 5906 5907 5908 5909 5910 5914 5915 5916 5917 5918 5914 5914 5916 5930 5925 5929 5926 5926 5924 5921 5919 5917 5916 5916 5916 5917 5916
5887 5888 5890 5891 5893 5896 5899 5902 5903 5904 5905 5906 5907 5907 5906 5906 5906 5906 5907 5907 5908 5910 5912 5915 5916 5918 5921 5919 5930 5932 5931 5933 5932 5933 5928 5926 5928 5925 5923 5920 5919 5919 5919 5919 5919
5882 5884 5886 5887 5889 5891 5895 5898 5901 5902 5903 5904 5906 5907 5907 5906 5907 5907 5907 5907 5909 5910 5912 5914 5915 5918 5919 5928 5933 5933 5934 5934 5934 5933 5930 5930 5924 5926 5907 5922 5921 5921 5921 5922 5922
5877 5879 5881 5883 5884 5886 5890 5893 5897 5899 5901 5902 5904 5906 5907 5906 5908 5907 5907 5908 5909 5911 5913 5916 5919 5918 5922 5932 5934 5935 5934 5931 5933 5930 5929 5928 5923 5924 5921 5922 5921 5923 5923 5924 5923
5872 5873 5875 5877 5879 5881 5884 5888 5892 5895 5898 5900 5902 5904 5906 5907 5906 5906 5908 5908 5909 5912 5913 5915 5918 5916 5927 5935 5934 5936 5932 5931 5930 5928 5927 5927 5928 5923 5922 5923 5923 5925 5924 5925 5924
5866 5867 5869 5871 5873 5875 5878 5882 5886 5891 5894 5897 5899 5902 5904 5906 5907 5906 5907 5909 5909 5911 5913 5915 5917 5919 5931 5936 5934 5933 5933 5931 5932 5929 5927 5926 5925 5925 5925 5924 5925 5925 5926 5926 5926
5863 5862 5862 5865 5867 5869 5872 5875 5880 5885 5889 5892 5895 5899 5902 5905 5905 5906 5906 5908 5909 5911 5912 5915 5916 5920 5926 5933 5932 5930 5932 5933 5931 5928 5929 5928 5927 5926 5926 5925 5926 5928 5928 5928 5927
5859 5858 5856 5858 5860 5862 5865 5868 5873 5878 5883 5887 5891 5895 5898 5901 5903 5905 5905 5906 5908 5909 5911 5914 5917 5918 5924 5932 5931 5931 5934 5934 5932 5930 5931 5929 5928 5930 5930 5929 5928 5929 5929 5928 5928
5855 5853 5852 5851 5852 5855 5858 5861 5866 5870 5876 5881 5885 5890 5894 5897 5900 5902 5904 5905 5907 5908 5910 5912 5916 5918 5921 5927 5931 5931 5935 5933 5931 5930 5932 5932 5930 5932 5931 5931 5929 5928 5928 5928 5929
5850 5849 5847 5846 5845 5847 5851 5855 5857 5862 5868 5874 5879 5886 5889 5891 5895 5899 5901 5903 5904 5906 5909 5912 5914 5916 5917 5926 5929 5932 5932 5932 5932 5933 5930 5930 5928 5931 5930 5929 5928 5927 5928 5928 5929
5844 5844 5843 5841 5839 5840 5844 5849 5852 5853 5860 5867 5870 5876 5883 5887 5890 5895 5898 5899 5902 5903 5906 5908 5911 5913 5918 5923 5930 5936 5938 5930 5932 5928 5929 5927 5930 5929 5926 5927 5927 5927 5927 5927 5928
5837 5837 5837 5836 5835 5834 5836 5839 5843 5846 5853 5857 5865 5870 5877 5881 5886 5889 5893 5896 5899 5901 5903 5905 5908 5912 5919 5923 5927 5934 5937 5937 5936 5933 5934 5925 5923 5923 5924 5926 5926 5925 5926 5926 5926
5831 5830 5830 5830 5830 5829 5829 5833 5836 5839 5844 5848 5856 5863 5870 5876 5881 5884 5889 5892 5896 5898 5900 5903 5908 5909 5917 5921 5924 5928 5931 5936 5936 5934 5932 5933 5923 5923 5923 5925 5926 5925 5924 5924 5925
5823 5824 5824 5823 5826 5823 5822 5826 5829 5833 5838 5846 5849 5857 5861 5869 5874 5879 5883 5888 5891 5895 5898 5901 5903 5907 5912 5917 5919 5923 5925 5929 5934 5931 5931 5927 5927 5921 5919 5922 5925 5924 5924 5922 5923
5815 5816 5816 5818 5818 5817 5819 5822 5824 5828 5838 5843 5847 5851 5856 5863 5870 5875 5879 5881 5885 5890 5893 5898 5900 5905 5906 5912 5916 5918 5922 5924 5928 5929 5929 5929 5924 5918 5918 5918 5922 5922 5923 5921 5920
5806 5808 5809 5812 5810 5811 5811 5813 5816 5826 5834 5841 5837 5842 5848 5854 5860 5866 5872 5876 5880 5884 5887 5892 5897 5900 5903 5907 5910 5914 5917 5922 5923 5923 5922 5925 5925 5921 5914 5915 5918 5916 5916 5917 5917
5798 5799 5802 5803 5802 5806 5806 5808 5811 5815 5833 5835 5835 5839 5844 5850 5854 5858 5864 5868 5873 5879 5883 5888 5893 5899 5900 5904 5908 5911 5913 5917 5919 5918 5918 5921 5921 5918 5916 5914 5912 5909 5909 5912 5914
5788 5791 5794 5794 5796 5798 5799 5801 5801 5812 5821 5832 5840 5838 5840 5845 5849 5854 5858 5864 5870 5875 5881 5884 5890 5893 5895 5900 5906 5907 5909 5913 5914 5917 5917 5916 5914 5916 5916 5912 5904 5903 5906 5910 5913
5778 5781 5787 5786 5789 5790 5792 5792 5797 5809 5821 5829 5838 5839 5838 5842 5846 5849 5852 5860 5866 5870 5878 5883 5888 5893 5893 5898 5904 5901 5902 5911 5914 5915 5916 5915 5912 5911 5911 5910 5911 5909 5912 5909 5906
5768 5773 5778 5778 5781 5783 5784 5789 5795 5806 5814 5824 5826 5834 5837 5839 5842 5846 5847 5855 5860 5866 5871 5882 5887 5889 5892 5893 5897 5898 5901 5903 5906 5910 5910 5913 5911 5907 5903 5901 5902 5905 5905 5906 5902
5760 5765 5766 5772 5772 5775 5778 5786 5792 5799 5802 5810 5816 5822 5834 5839 5841 5846 5846 5851 5855 5862 5868 5879 5886 5889 5888 5885 5891 5896 5897 5900 5904 5906 5908 5910 5904 5901 5899 5899 5898 5898 5898 5900 5901
5751 5756 5758 5763 5766 5770 5774 5780 5785 5792 5799 5805 5810 5813 5819 5828 5838 5842 5844 5847 5851 5857 5863 5871 5879 5882 5883 5886 5888 5892 5893 5895 5897 5901 5900 5901 5903 5896 5893 5893 5892 5891 5894 5895 5896
5742 5746 5750 5755 5758 5763 5769 5772 5776 5784 5790 5798 5803 5809 5813 5820 5829 5837 5842 5848 5851 5853 5859 5865 5869 5874 5879 5883 5883 5884 5888 5890 5892 5895 5896 5899 5901 5892 5892 5891 5889 5888 5887 5886 5886
5734 5738 5739 5746 5751 5756 5760 5766 5771 5776 5784 5790 5797 5804 5809 5814 5819 5827 5837 5842 5847 5850 5855 5861 5864 5865 5871 5877 5879 5878 5880 5884 5889 5891 5892 5892 5896 5884 5886 5884 5881 5880 5884 5882 5880
5724 5725 5726 5735 5743 5748 5753 5757 5766 5771 5778 5781 5787 5792 5801 5807 5814 5820 5828 5836 5841 5844 5846 5851 5853 5859 5864 5867 5872 5875 5875 5877 5878 5882 5883 5888 5880 5879 5874 5871 5876 5874 5876 5879 5878
5712 5717 5722 5729 5731 5735 5743 5751 5756 5763 5772 5776 5780 5786 5794 5802 5808 5807 5815 5826 5831 5832 5835 5840 5845 5849 5854 5861 5864 5867 5871 5872 5872 5873 5877 5880 5881 5874 5872 5864 5869 5867 5873 5872 5869
5702 5707 5711 5720 5724 5731 5737 5741 5751 5755 5764 5765 5767 5777 5784 5788 5787 5802 5807 5812 5817 5821 5828 5833 5839 5843 5846 5852 5856 5859 5864 5868 5870 5870 5871 5872 5877 5870 5858 5859 5861 5859 5864 5863 5863